Flag for Brazil Weather past 2 weeks in Tabatinga, Amazonas, Brazil

Now
75 °F

Clear.


Feels Like: 74 °F
Forecast: 73 / 87 °F
Wind: No wind

Location: Leticia / Vasquez Cobo

Current Time: Jul 25, 2014 at 4:40:54 AM

Latest Report: Jul 25, 2014 at 3:00 AM


Visibility: 10 mi

Pressure: 29.89 "Hg

Humidity: 94%

Dew point: 73 °F

Location of TabatingaLocation

Historic Weather in Tabatinga — Graph

°F

Tabatinga temperature yesterday

Maximum temperature yesterday: 88 °F (at 3:00 PM)
Minimum temperature yesterday: 72 °F (at 4:00 AM)
Average temperature yesterday: 79 °F

Past Weeks' High & Low Weather Summary

 TemperatureHumidityPressure
High90 °F (Jul 21, 4:00 PM)100% (Jul 10, 5:00 AM)30.09 "Hg (Jul 10, 5:00 AM)
Low68 °F (Jul 11, 5:00 AM)66% (Jul 12, 2:00 PM)29.77 "Hg (Jul 23, 12:00 PM)
Average78 °F90%29.98 "Hg
* Reported Jul 10 5:00 AM — Jul 25 3:00 AM, Tabatinga, Weather by CustomWeather, © 2014

Note: Actual official high and low records may vary slightly from our data, if they occured in-between our weather recording intervals... More about our weather records

Advertising

Tabatinga weather history for previous 24 hours

 ConditionsComfort  
Time TempWeatherWind HumidityBarometerVisibility
3:00 AM
Jul 25
75 °FClear.No wind94%29.89 "Hg10 mi
2:00 AM75 °FClear.No wind100%29.90 "Hg10 mi
12:00 AM75 °FPassing clouds.No wind100%29.92 "HgN/A
11:00 PM
Jul 24
77 °FPassing clouds.No wind94%29.93 "HgN/A
10:00 PM77 °FPassing clouds.No wind94%29.94 "HgN/A
9:00 PM77 °FClear.No wind94%29.92 "Hg10 mi
8:00 PM77 °FClear.No wind94%29.89 "Hg10 mi
7:00 PM79 °FClear.No wind100%29.87 "Hg10 mi
6:00 PM82 °FPassing clouds.No wind89%29.84 "HgN/A
5:00 PM88 °FPassing clouds.No wind75%29.83 "HgN/A
4:00 PM88 °FPassing clouds.No wind75%29.82 "HgN/A
3:00 PM88 °FPassing clouds.No wind70%29.85 "HgN/A
2:00 PM86 °FScattered clouds.No wind79%29.88 "HgN/A
1:00 PM82 °FScattered clouds.2 mph79%29.94 "HgN/A
12:00 PM77 °FBroken clouds.No wind89%29.97 "HgN/A
11:00 AM75 °FDrizzle. Broken clouds.No wind100%29.99 "HgN/A
10:00 AM84 °FScattered showers. Scattered clouds.2 mph79%29.99 "HgN/A
9:00 AM81 °FPassing clouds.No wind84%29.99 "HgN/A
8:00 AM77 °FScattered clouds.No wind94%29.98 "HgN/A
7:00 AM73 °FFog.No wind100%29.96 "Hg0 mi
6:00 AM72 °FLow clouds.No wind100%29.93 "Hg1 mi
5:00 AM72 °FFog.No wind100%29.91 "Hg1 mi
4:00 AM72 °FFog.No wind100%29.91 "Hg1 mi
Weather by CustomWeather, © 2014

See weather overviewHow to use our weather pages